Zurück zum Katalog

OPS 4682 DEB

AktivPO
NORAD 55119·DEBRIS·🇺🇸 United States

Gestartet Apr 3, 1965 von Vandenberg Space Force Base

Loading…

Nächste Überflüge (nächste 24 Stunden)

TLE

AktuellSource: Space-Track

Epoche: Sep 13, 2026, 07:11 UTC

1 55119U 65027HJ  26256.29966948  .00000558  00000-0  19166-2 0  9998
2 55119  90.2539   8.3458 0022747 223.2438 136.6897 12.96684581341340

Verfolge OPS 4682 DEB in Echtzeit mit AllMySat

Download on the App Store